Weather History for Phuket, Thailand

Change the Weather History Date:

Monday, February 25, 2013

  Actual Average Record
Temperature  
Mean Temperature 78 °F -  
Max Temperature 84 °F 92 °F 104 °F (1998)
Min Temperature 73 °F 76 °F 68 °F (2014)
Cooling Degree Days 14    
Growing Degree Days 28 (Base 50)    
Moisture  
Dew Point 73 °F    
Average Humidity 83    
Maximum Humidity 95    
Minimum Humidity 66    
Precipitation  
Precipitation 0.02 in 0.07 in - ()
Sea Level Pressure  
Sea Level Pressure 29.84 in    
Wind  
Wind Speed 4 mph ()    
Max Wind Speed 13 mph    
Max Gust Speed -    
Visibility 4.6 miles    
Events Rain    
Averages and records for this station are not official NWS values.
T = Trace of Precipitation, MM = Missing Value Source: Averaged Metar Reports

Daily Weather History Graph

Daily Weather History Graph

Search for Another Location

Airport:

Trip Planner

Search our weather history database for the weather conditions in past years. The results will help you decide how hot, cold, wet, or windy it might be!

Date:

Astronomy

Feb. 25, 2013 Rise Set
Actual Time 6:41 AM ICT 6:38 PM ICT
Civil Twilight 6:20 AM ICT 6:59 PM ICT
Nautical Twilight 5:56 AM ICT 7:23 PM ICT
Astronomical Twilight 5:31 AM ICT 7:48 PM ICT
Moon 6:12 PM ICT (2/25) 5:56 AM ICT (2/25)
Length of Visible Light 12h 38m
Length of Day
11h 56m
Full, 100% of the Moon is Illuminated
Feb 25
Full
Feb 26
Full
Mar 5
Last Quarter
Mar 12
New
Mar 20
First Quarter

Hourly Weather History & Observations

Time (ICT) Temp. Heat Index Dew Point Humidity Pressure Visibility Wind Dir Wind Speed Gust Speed Precip Events Conditions
12:00 AM 80.6 °F 85.4 °F 73.4 °F 79% 29.89 in 4.3 mi ENE 8.1 mph - N/A   Mostly Cloudy
12:30 AM 80.6 °F 85.4 °F 73.4 °F 79% 29.89 in 6.2 mi NE 5.8 mph - N/A   Scattered Clouds
1:00 AM 79 °F - 77 °F 90% 29.84 in 5 mi Calm Calm - -   Scattered Clouds
2:00 AM 77.0 °F - 73.4 °F 89% 29.89 in 4.3 mi Calm Calm - N/A   Mostly Cloudy
2:30 AM 77.0 °F - 73.4 °F 89% 29.86 in 4.3 mi Calm Calm - N/A Rain Light Rain
3:00 AM 77.0 °F - 73.4 °F 89% 29.86 in 4.3 mi East 6.9 mph - N/A   Mostly Cloudy
3:30 AM 77.0 °F - 73.4 °F 89% 29.83 in 4.3 mi ENE 8.1 mph - N/A   Mostly Cloudy
4:00 AM 77.0 °F - 73.4 °F 89% 29.83 in 4.3 mi ENE 3.5 mph - N/A   Mostly Cloudy
4:30 AM 77.0 °F - 73.4 °F 89% 29.83 in 5.0 mi NE 5.8 mph - N/A   Mostly Cloudy
5:00 AM 77.0 °F - 73.4 °F 89% 29.83 in 5.0 mi ENE 6.9 mph - N/A   Mostly Cloudy
5:30 AM 77.0 °F - 71.6 °F 83% 29.80 in 5.0 mi ENE 3.5 mph - N/A   Mostly Cloudy
6:00 AM 75.2 °F - 71.6 °F 89% 29.80 in 5.0 mi Calm Calm - N/A Rain Rain
6:30 AM 75.2 °F - 71.6 °F 89% 29.83 in 5.0 mi NE 4.6 mph - N/A Rain Light Rain
7:00 AM 76 °F - 75 °F 95% 29.82 in 5 mi Calm Calm - - Rain Light Rain
7:00 AM 77.0 °F - 71.6 °F 83% 29.83 in 5.0 mi ENE 6.9 mph - N/A Rain Light Rain
7:30 AM 77.0 °F - 71.6 °F 83% 29.83 in 5.0 mi ENE 8.1 mph - N/A Rain Light Rain
8:00 AM 77.0 °F - 71.6 °F 83% 29.83 in 5.0 mi ENE 9.2 mph - N/A Rain Light Rain
8:30 AM 77.0 °F - 71.6 °F 83% 29.86 in 4.3 mi NE 9.2 mph - N/A Rain Light Rain
9:00 AM 77.0 °F - 71.6 °F 83% 29.86 in 4.3 mi ENE 4.6 mph - N/A   Drizzle
9:30 AM 77.0 °F - 73.4 °F 89% 29.89 in 4.3 mi ENE 3.5 mph - N/A   Drizzle
10:00 AM 78.8 °F - 73.4 °F 83% 29.89 in 4.3 mi East 5.8 mph - N/A   Drizzle
10:30 AM 78.8 °F - 73.4 °F 83% 29.89 in 4.3 mi NE 5.8 mph - N/A Rain Light Rain
11:00 AM 78.8 °F - 73.4 °F 83% 29.89 in 4.3 mi ENE 4.6 mph - N/A Rain Light Rain
11:30 AM 78.8 °F - 73.4 °F 83% 29.89 in 4.3 mi ENE 6.9 mph - N/A Rain Light Rain
12:00 PM 78.8 °F - 73.4 °F 83% 29.89 in 4.3 mi NE 6.9 mph - N/A   Mostly Cloudy
12:30 PM 80.6 °F 85.4 °F 73.4 °F 79% 29.86 in 4.3 mi NE 4.6 mph - N/A Rain Light Rain
1:00 PM 81 °F - 75 °F 77% 29.83 in 4 mi NE 3.5 mph - - Rain Light Rain
1:00 PM 80.6 °F 85.4 °F 73.4 °F 79% 29.86 in 4.3 mi ENE 4.6 mph - N/A   Mostly Cloudy
1:30 PM 82.4 °F 88.2 °F 73.4 °F 74% 29.83 in 4.3 mi East 8.1 mph - N/A   Mostly Cloudy
2:00 PM 84.2 °F 90.9 °F 73.4 °F 70% 29.80 in 4.3 mi East 9.2 mph - N/A   Mostly Cloudy
2:30 PM 84.2 °F 89.6 °F 71.6 °F 66% 29.80 in 4.3 mi East 11.5 mph - N/A Rain Light Rain
3:00 PM 82.4 °F 88.2 °F 73.4 °F 74% 29.80 in 4.3 mi East 12.7 mph - N/A   Mostly Cloudy
3:30 PM 82.4 °F 88.2 °F 73.4 °F 74% 29.77 in 4.3 mi East 10.4 mph - N/A   Mostly Cloudy
4:00 PM 80.6 °F 85.4 °F 73.4 °F 79% 29.77 in 4.3 mi East 10.4 mph - N/A   Mostly Cloudy
4:30 PM 80.6 °F 85.4 °F 73.4 °F 79% 29.77 in 5.0 mi East 9.2 mph - N/A   Mostly Cloudy
5:00 PM 80.6 °F 85.4 °F 73.4 °F 79% 29.77 in 5.0 mi East 9.2 mph - N/A   Mostly Cloudy
5:30 PM 80.6 °F 85.4 °F 73.4 °F 79% 29.77 in 4.3 mi East 4.6 mph - N/A   Mostly Cloudy
6:00 PM 80.6 °F 85.4 °F 73.4 °F 79% 29.80 in 4.3 mi East 4.6 mph - N/A   Mostly Cloudy
6:30 PM 80.6 °F 85.4 °F 73.4 °F 79% 29.80 in 4.3 mi Calm Calm - N/A   Mostly Cloudy
7:00 PM 81 °F - 75 °F 78% 29.77 in 5 mi East 3.5 mph - -   Mist
7:00 PM 78.8 °F - 73.4 °F 83% 29.83 in 4.3 mi Calm Calm - N/A   Mostly Cloudy
7:30 PM 77.0 °F - 73.4 °F 89% 29.86 in 4.3 mi Calm Calm - N/A   Mostly Cloudy
8:00 PM 77.0 °F - 73.4 °F 89% 29.86 in 4.3 mi Calm Calm - N/A   Mostly Cloudy
8:30 PM 77.0 °F - 73.4 °F 89% 29.89 in 5.0 mi Calm Calm - N/A   Mostly Cloudy
9:00 PM 77.0 °F - 73.4 °F 89% 29.89 in 5.0 mi Calm Calm - N/A   Mostly Cloudy
9:30 PM 77.0 °F - 73.4 °F 89% 29.89 in 5.0 mi Variable 2.3 mph - N/A   Mostly Cloudy
10:00 PM 77.0 °F - 73.4 °F 89% 29.92 in 5.0 mi Variable 2.3 mph - N/A   Mostly Cloudy
10:30 PM 77.0 °F - 73.4 °F 89% 29.92 in 5.0 mi Calm Calm - N/A   Mostly Cloudy
11:00 PM 77.0 °F - 73.4 °F 89% 29.92 in 5.0 mi Calm Calm - N/A   Mostly Cloudy